Hourly Weather Vanadzor

Today, 9 July, Thursday

Time Temperature Precipitation Wind Pressure Humidity
00:00 +18°C° 0.2 mm 1 mps 634 mmHg 81%
01:00 +16°C° 0 mm 1 mps 634 mmHg 82%
02:00 +15°C° 0 mm 1 mps 634 mmHg 82%
03:00 +14°C° 0 mm 0 mps 634 mmHg 84%
04:00 +15°C° 0 mm 0 mps 634 mmHg 83%
05:00 +16°C° 0 mm 0 mps 635 mmHg 83%
06:00 +16°C° 0 mm 0 mps 635 mmHg 82%
07:00 +20°C° 0.2 mm 1 mps 636 mmHg 78%
08:00 +21°C° 0.2 mm 1 mps 636 mmHg 73%
09:00 +23°C° 0.2 mm 1 mps 636 mmHg 69%
10:00 +24°C° 0.9 mm 2 mps 636 mmHg 67%
11:00 +24°C° 0.9 mm 2 mps 636 mmHg 65%
12:00 +25°C° 0.9 mm 2 mps 636 mmHg 64%
13:00 +25°C° 0.8 mm 2 mps 636 mmHg 63%
14:00 +25°C° 0.8 mm 2 mps 636 mmHg 63%
15:00 +26°C° 0.8 mm 2 mps 636 mmHg 62%
16:00 +25°C° 0.8 mm 2 mps 636 mmHg 67%
17:00 +24°C° 0.8 mm 2 mps 636 mmHg 72%
18:00 +24°C° 0.8 mm 1 mps 636 mmHg 76%
19:00 +22°C° 0.6 mm 1 mps 636 mmHg 79%
20:00 +21°C° 0.6 mm 1 mps 636 mmHg 81%
21:00 +17°C° 0.6 mm 0 mps 636 mmHg 84%
22:00 +19°C° 0.2 mm 1 mps 636 mmHg 85%
23:00 +18°C° 0.2 mm 1 mps 636 mmHg 86%

Tomorrow, 10 July, Friday

Time Temperature Precipitation Wind Pressure Humidity
00:00 +18°C° 0.2 mm 1 mps 636 mmHg 88%
01:00 +16°C° 0.2 mm 1 mps 636 mmHg 89%
02:00 +16°C° 0.2 mm 1 mps 636 mmHg 90%
03:00 +15°C° 0.2 mm 1 mps 635 mmHg 91%
04:00 +16°C° 0.1 mm 1 mps 635 mmHg 90%
05:00 +16°C° 0.1 mm 1 mps 636 mmHg 90%
06:00 +16°C° 0.1 mm 0 mps 636 mmHg 90%
07:00 +19°C° 0.4 mm 1 mps 636 mmHg 86%
08:00 +20°C° 0.4 mm 2 mps 637 mmHg 81%
09:00 +21°C° 0.4 mm 2 mps 637 mmHg 77%
10:00 +21°C° 1 mm 2 mps 637 mmHg 77%
11:00 +21°C° 1 mm 2 mps 637 mmHg 78%
12:00 +23°C° 1 mm 2 mps 637 mmHg 78%
13:00 +23°C° 0.8 mm 2 mps 636 mmHg 79%
14:00 +23°C° 0.8 mm 2 mps 636 mmHg 80%
15:00 +23°C° 0.8 mm 2 mps 636 mmHg 80%
16:00 +21°C° 0.8 mm 2 mps 636 mmHg 83%
17:00 +21°C° 0.8 mm 2 mps 636 mmHg 85%
18:00 +20°C° 0.8 mm 2 mps 636 mmHg 87%
19:00 +21°C° 1.6 mm 1 mps 636 mmHg 88%
20:00 +20°C° 1.6 mm 1 mps 636 mmHg 90%
21:00 +19°C° 1.6 mm 1 mps 636 mmHg 91%
22:00 +18°C° 0.4 mm 1 mps 636 mmHg 91%
23:00 +18°C° 0.4 mm 1 mps 636 mmHg 91%

Day after tomorrow, 11 July, Saturday

Time Temperature Precipitation Wind Pressure Humidity
00:00 +16°C° 0.4 mm 1 mps 636 mmHg 90%
01:00 +16°C° 0.2 mm 1 mps 636 mmHg 92%
02:00 +15°C° 0.2 mm 1 mps 635 mmHg 94%
03:00 +15°C° 0.2 mm 1 mps 635 mmHg 96%
04:00 +16°C° 0.1 mm 1 mps 636 mmHg 96%
05:00 +16°C° 0.1 mm 1 mps 636 mmHg 96%
06:00 +18°C° 0.1 mm 1 mps 636 mmHg 96%
07:00 +18°C° 0.2 mm 1 mps 636 mmHg 94%
08:00 +18°C° 0.2 mm 2 mps 637 mmHg 92%
09:00 +19°C° 0.2 mm 2 mps 637 mmHg 89%
10:00 +19°C° 0.3 mm 2 mps 636 mmHg 88%
11:00 +20°C° 0.3 mm 2 mps 636 mmHg 87%
12:00 +20°C° 0.3 mm 2 mps 636 mmHg 85%
13:00 +21°C° 0.3 mm 2 mps 636 mmHg 84%
14:00 +21°C° 0.3 mm 2 mps 636 mmHg 83%
15:00 +21°C° 0.3 mm 2 mps 635 mmHg 82%
16:00 +21°C° 0.5 mm 2 mps 635 mmHg 85%
17:00 +20°C° 0.5 mm 2 mps 635 mmHg 87%
18:00 +20°C° 0.5 mm 2 mps 635 mmHg 90%
19:00 +19°C° 0.4 mm 2 mps 635 mmHg 92%
20:00 +18°C° 0.4 mm 2 mps 635 mmHg 94%
21:00 +18°C° 0.4 mm 1 mps 635 mmHg 96%
22:00 +18°C° 1.1 mm 1 mps 635 mmHg 96%
23:00 +18°C° 1.1 mm 1 mps 635 mmHg 96%

12 July, Sunday

Time Temperature Precipitation Wind Pressure Humidity
00:00 +18°C° 1.1 mm 1 mps 635 mmHg 95%
01:00 +16°C° 1 mm 1 mps 635 mmHg 95%
02:00 +16°C° 1 mm 1 mps 635 mmHg 96%
03:00 +16°C° 1 mm 1 mps 634 mmHg 96%
04:00 +16°C° 0.1 mm 1 mps 634 mmHg 95%
05:00 +18°C° 0.1 mm 1 mps 634 mmHg 94%
06:00 +18°C° 0.1 mm 1 mps 634 mmHg 93%
07:00 +19°C° 0.2 mm 1 mps 635 mmHg 90%
08:00 +19°C° 0.2 mm 2 mps 635 mmHg 86%
09:00 +20°C° 0.2 mm 2 mps 635 mmHg 82%
10:00 +21°C° 0.9 mm 2 mps 635 mmHg 81%
11:00 +21°C° 0.9 mm 2 mps 635 mmHg 81%
12:00 +23°C° 0.9 mm 2 mps 635 mmHg 80%
13:00 +23°C° 0.9 mm 2 mps 634 mmHg 80%
14:00 +23°C° 0.9 mm 2 mps 634 mmHg 80%
15:00 +23°C° 0.9 mm 2 mps 634 mmHg 80%
16:00 +23°C° 0.5 mm 2 mps 634 mmHg 81%
17:00 +21°C° 0.5 mm 2 mps 634 mmHg 83%
18:00 +21°C° 0.5 mm 2 mps 634 mmHg 85%
19:00 +20°C° 0.6 mm 2 mps 634 mmHg 87%
20:00 +19°C° 0.6 mm 1 mps 634 mmHg 89%
21:00 +18°C° 0.6 mm 1 mps 634 mmHg 91%
22:00 +18°C° 0.1 mm 1 mps 633 mmHg 90%
23:00 +16°C° 0.1 mm 1 mps 633 mmHg 90%

13 July, Monday

Time Temperature Precipitation Wind Pressure Humidity
00:00 +16°C° 0.1 mm 1 mps 633 mmHg 89%
01:00 +16°C° 0.1 mm 1 mps 633 mmHg 89%
02:00 +16°C° 0.1 mm 1 mps 632 mmHg 89%
03:00 +16°C° 0.1 mm 1 mps 632 mmHg 89%
04:00 +16°C° 0.1 mm 1 mps 632 mmHg 89%
05:00 +18°C° 0.1 mm 1 mps 632 mmHg 89%
06:00 +18°C° 0.1 mm 1 mps 632 mmHg 89%
07:00 +20°C° 0.4 mm 1 mps 633 mmHg 84%
08:00 +21°C° 0.4 mm 1 mps 633 mmHg 79%
09:00 +23°C° 0.4 mm 2 mps 633 mmHg 73%
10:00 +24°C° 0.7 mm 2 mps 633 mmHg 70%
11:00 +24°C° 0.7 mm 2 mps 633 mmHg 67%
12:00 +25°C° 0.7 mm 2 mps 633 mmHg 64%
13:00 +25°C° 0.9 mm 2 mps 633 mmHg 65%
14:00 +25°C° 0.9 mm 2 mps 633 mmHg 65%
15:00 +26°C° 0.9 mm 2 mps 633 mmHg 65%
16:00 +24°C° 2 mm 2 mps 632 mmHg 72%
17:00 +21°C° 2 mm 3 mps 632 mmHg 80%
18:00 +19°C° 2 mm 3 mps 632 mmHg 87%
19:00 +18°C° 0.9 mm 2 mps 632 mmHg 88%
20:00 +17°C° 0.9 mm 2 mps 632 mmHg 89%
21:00 +16°C° 0.9 mm 1 mps 633 mmHg 91%
22:00 +16°C° 0 mm 1 mps 633 mmHg 88%
23:00 +16°C° 0 mm 1 mps 633 mmHg 86%

14 July, Tuesday

Time Temperature Precipitation Wind Pressure Humidity
00:00 +16°C° 0 mm 1 mps 633 mmHg 84%
01:00 +15°C° 0 mm 1 mps 633 mmHg 84%
02:00 +15°C° 0 mm 1 mps 632 mmHg 84%
03:00 +14°C° 0 mm 0 mps 632 mmHg 84%
04:00 +14°C° 0 mm 0 mps 633 mmHg 84%
05:00 +15°C° 0 mm 0 mps 633 mmHg 85%
06:00 +16°C° 0 mm 0 mps 633 mmHg 85%
07:00 +19°C° 0.1 mm 1 mps 634 mmHg 80%
08:00 +21°C° 0.1 mm 1 mps 634 mmHg 76%
09:00 +23°C° 0.1 mm 1 mps 635 mmHg 71%
10:00 +24°C° 0.4 mm 1 mps 635 mmHg 68%
11:00 +25°C° 0.4 mm 1 mps 635 mmHg 66%
12:00 +26°C° 0.4 mm 2 mps 635 mmHg 63%
13:00 +26°C° 0.7 mm 2 mps 635 mmHg 61%
14:00 +26°C° 0.7 mm 2 mps 635 mmHg 59%
15:00 +27°C° 0.7 mm 1 mps 635 mmHg 57%
16:00 +26°C° 0.6 mm 1 mps 635 mmHg 65%
17:00 +25°C° 0.6 mm 2 mps 635 mmHg 72%
18:00 +24°C° 0.6 mm 2 mps 635 mmHg 79%
19:00 +22°C° 0.1 mm 1 mps 635 mmHg 82%
20:00 +20°C° 0.1 mm 1 mps 635 mmHg 85%
21:00 +18°C° 0.1 mm 1 mps 635 mmHg 88%
22:00 +18°C° 0.1 mm 1 mps 635 mmHg 87%
23:00 +18°C° 0.1 mm 1 mps 635 mmHg 87%
Show more